When you browse on this site, cookies collect data to enhance your experience and personalize the content and advertising you see.
Visit our Privacy Policy to learn more. By continuing to use the site, you agree to this use of cookies and data.
  • In Austria
  • List of Countries
  • For 7 days
  • Water Temperature
  • Weather Map
  • News
  • Weather Widgets
  • user-avatar
    Login

    Hourly Weather Smolan

    Today, 16 October, Wednesday

    Time Temperature Precipitation Wind Pressure Humidity
    00:00 +11°C° 0 mm 1 mps 656 mmHg 53%
    01:00 +11°C° 0 mm 1 mps 656 mmHg 52%
    02:00 +11°C° 0 mm 1 mps 656 mmHg 50%
    03:00 +11°C° 0 mm 1 mps 656 mmHg 48%
    04:00 +11°C° 0 mm 1 mps 656 mmHg 46%
    05:00 +10°C° 0 mm 1 mps 656 mmHg 43%
    06:00 +12°C° 0 mm 1 mps 656 mmHg 42%
    07:00 +13°C° 0 mm 1 mps 657 mmHg 42%
    08:00 +15°C° 0 mm 1 mps 658 mmHg 39%
    09:00 +18°C° 0 mm 1 mps 658 mmHg 35%
    10:00 +20°C° 0 mm 1 mps 659 mmHg 31%
    11:00 +22°C° 0 mm 1 mps 659 mmHg 28%
    12:00 +22°C° 0 mm 1 mps 659 mmHg 28%
    13:00 +23°C° 0 mm 1 mps 659 mmHg 28%
    14:00 +23°C° 0 mm 2 mps 659 mmHg 27%
    15:00 +21°C° 0 mm 1 mps 658 mmHg 35%
    16:00 +19°C° 0 mm 1 mps 657 mmHg 43%
    17:00 +16°C° 0 mm 1 mps 657 mmHg 51%
    18:00 +15°C° 0 mm 1 mps 656 mmHg 54%
    19:00 +14°C° 0 mm 1 mps 656 mmHg 57%
    20:00 +12°C° 0 mm 1 mps 656 mmHg 60%
    21:00 +12°C° 0 mm 1 mps 656 mmHg 60%
    22:00 +12°C° 0 mm 1 mps 656 mmHg 60%
    23:00 +11°C° 0 mm 1 mps 656 mmHg 61%

    Tomorrow, 17 October, Thursday

    Time Temperature Precipitation Wind Pressure Humidity
    00:00 +11°C° 0 mm 1 mps 656 mmHg 60%
    01:00 +11°C° 0 mm 1 mps 656 mmHg 60%
    02:00 +11°C° 0 mm 1 mps 656 mmHg 59%
    03:00 +11°C° 0 mm 1 mps 656 mmHg 59%
    04:00 +11°C° 0 mm 1 mps 656 mmHg 58%
    05:00 +11°C° 0 mm 1 mps 656 mmHg 57%
    06:00 +12°C° 0 mm 1 mps 657 mmHg 55%
    07:00 +13°C° 0 mm 1 mps 657 mmHg 53%
    08:00 +13°C° 0 mm 0 mps 658 mmHg 51%
    09:00 +16°C° 0 mm 1 mps 658 mmHg 45%
    10:00 +20°C° 0 mm 1 mps 659 mmHg 38%
    11:00 +22°C° 0 mm 1 mps 660 mmHg 31%
    12:00 +22°C° 0 mm 1 mps 660 mmHg 31%
    13:00 +22°C° 0 mm 1 mps 660 mmHg 31%
    14:00 +23°C° 0 mm 2 mps 659 mmHg 31%
    15:00 +21°C° 0 mm 1 mps 659 mmHg 38%
    16:00 +19°C° 0 mm 1 mps 658 mmHg 45%
    17:00 +18°C° 0 mm 1 mps 658 mmHg 52%
    18:00 +15°C° 0 mm 1 mps 657 mmHg 55%
    19:00 +14°C° 0 mm 1 mps 657 mmHg 59%
    20:00 +12°C° 0 mm 1 mps 657 mmHg 62%
    21:00 +12°C° 0 mm 1 mps 657 mmHg 62%
    22:00 +12°C° 0 mm 1 mps 657 mmHg 63%
    23:00 +12°C° 0 mm 1 mps 657 mmHg 63%

    Day after tomorrow, 18 October, Friday

    Time Temperature Precipitation Wind Pressure Humidity
    00:00 +11°C° 0 mm 1 mps 657 mmHg 63%
    01:00 +11°C° 0 mm 1 mps 657 mmHg 63%
    02:00 +11°C° 0 mm 1 mps 657 mmHg 63%
    03:00 +11°C° 0 mm 1 mps 657 mmHg 63%
    04:00 +11°C° 0 mm 1 mps 657 mmHg 62%
    05:00 +11°C° 0 mm 1 mps 656 mmHg 62%
    06:00 +12°C° 0 mm 1 mps 657 mmHg 58%
    07:00 +13°C° 0 mm 1 mps 657 mmHg 55%
    08:00 +13°C° 0 mm 0 mps 658 mmHg 51%
    09:00 +16°C° 0 mm 1 mps 659 mmHg 45%
    10:00 +19°C° 0 mm 1 mps 659 mmHg 40%
    11:00 +21°C° 0 mm 1 mps 660 mmHg 34%
    12:00 +21°C° 0 mm 1 mps 660 mmHg 34%
    13:00 +21°C° 0 mm 2 mps 659 mmHg 34%
    14:00 +21°C° 0 mm 2 mps 659 mmHg 34%
    15:00 +19°C° 0 mm 2 mps 658 mmHg 41%
    16:00 +19°C° 0 mm 1 mps 658 mmHg 48%
    17:00 +16°C° 0 mm 1 mps 657 mmHg 55%
    18:00 +15°C° 0 mm 1 mps 657 mmHg 60%
    19:00 +14°C° 0 mm 1 mps 656 mmHg 64%
    20:00 +12°C° 0 mm 1 mps 656 mmHg 69%
    21:00 +12°C° 0 mm 1 mps 656 mmHg 70%
    22:00 +12°C° 0 mm 1 mps 656 mmHg 70%
    23:00 +12°C° 0 mm 1 mps 657 mmHg 71%

    19 October, Saturday

    Time Temperature Precipitation Wind Pressure Humidity
    00:00 +11°C° 0 mm 1 mps 656 mmHg 71%
    01:00 +11°C° 0 mm 1 mps 656 mmHg 71%
    02:00 +11°C° 0 mm 1 mps 656 mmHg 71%
    03:00 +11°C° 0 mm 1 mps 656 mmHg 71%
    04:00 +11°C° 0 mm 1 mps 656 mmHg 71%
    05:00 +11°C° 0 mm 1 mps 656 mmHg 71%
    06:00 +12°C° 0 mm 1 mps 657 mmHg 67%
    07:00 +13°C° 0 mm 1 mps 657 mmHg 64%
    08:00 +13°C° 0 mm 0 mps 658 mmHg 60%
    09:00 +16°C° 0 mm 1 mps 658 mmHg 54%
    10:00 +19°C° 0 mm 1 mps 659 mmHg 47%
    11:00 +21°C° 0 mm 1 mps 660 mmHg 41%
    12:00 +21°C° 0 mm 1 mps 660 mmHg 40%
    13:00 +20°C° 0 mm 2 mps 659 mmHg 40%
    14:00 +21°C° 0 mm 2 mps 659 mmHg 40%
    15:00 +19°C° 0.1 mm 2 mps 659 mmHg 46%
    16:00 +19°C° 0.1 mm 1 mps 658 mmHg 53%
    17:00 +16°C° 0.1 mm 1 mps 658 mmHg 59%
    18:00 +15°C° 0 mm 1 mps 657 mmHg 63%
    19:00 +14°C° 0 mm 1 mps 657 mmHg 68%
    20:00 +12°C° 0 mm 1 mps 657 mmHg 72%
    21:00 +12°C° 0 mm 1 mps 657 mmHg 73%
    22:00 +12°C° 0 mm 1 mps 657 mmHg 73%
    23:00 +12°C° 0 mm 1 mps 658 mmHg 73%

    20 October, Sunday

    Time Temperature Precipitation Wind Pressure Humidity
    00:00 +11°C° 0 mm 1 mps 657 mmHg 73%
    01:00 +11°C° 0 mm 1 mps 657 mmHg 74%
    02:00 +11°C° 0 mm 1 mps 657 mmHg 74%
    03:00 +11°C° 0 mm 1 mps 657 mmHg 74%
    04:00 +11°C° 0 mm 1 mps 657 mmHg 74%
    05:00 +11°C° 0 mm 1 mps 658 mmHg 74%
    06:00 +12°C° 0 mm 1 mps 658 mmHg 70%
    07:00 +13°C° 0 mm 1 mps 658 mmHg 66%
    08:00 +14°C° 0 mm 1 mps 659 mmHg 62%
    09:00 +16°C° 0 mm 1 mps 660 mmHg 55%
    10:00 +19°C° 0 mm 1 mps 660 mmHg 47%
    11:00 +21°C° 0 mm 1 mps 661 mmHg 39%
    12:00 +20°C° 0 mm 2 mps 661 mmHg 39%
    13:00 +21°C° 0 mm 2 mps 661 mmHg 38%
    14:00 +21°C° 0 mm 2 mps 661 mmHg 37%
    15:00 +20°C° 0 mm 2 mps 660 mmHg 43%
    16:00 +19°C° 0 mm 1 mps 659 mmHg 49%
    17:00 +18°C° 0 mm 1 mps 659 mmHg 56%
    18:00 +15°C° 0 mm 1 mps 658 mmHg 60%
    19:00 +14°C° 0 mm 1 mps 658 mmHg 64%
    20:00 +12°C° 0 mm 1 mps 658 mmHg 69%
    21:00 +12°C° 0 mm 1 mps 658 mmHg 69%
    22:00 +12°C° 0 mm 1 mps 658 mmHg 69%
    23:00 +12°C° 0 mm 1 mps 659 mmHg 69%

    21 October, Monday

    Time Temperature Precipitation Wind Pressure Humidity
    00:00 +12°C° 0 mm 1 mps 659 mmHg 69%
    01:00 +11°C° 0 mm 1 mps 659 mmHg 70%
    02:00 +11°C° 0 mm 1 mps 658 mmHg 70%
    03:00 +11°C° 0 mm 1 mps 658 mmHg 71%
    04:00 +11°C° 0 mm 1 mps 658 mmHg 71%
    05:00 +11°C° 0 mm 1 mps 658 mmHg 71%
    06:00 +12°C° 0 mm 1 mps 659 mmHg 68%
    07:00 +13°C° 0 mm 1 mps 659 mmHg 65%
    08:00 +14°C° 0 mm 1 mps 660 mmHg 62%
    09:00 +16°C° 0 mm 1 mps 660 mmHg 54%
    10:00 +19°C° 0 mm 1 mps 661 mmHg 46%
    11:00 +21°C° 0 mm 1 mps 662 mmHg 38%
    12:00 +20°C° 0 mm 2 mps 662 mmHg 37%
    13:00 +20°C° 0 mm 2 mps 662 mmHg 37%
    14:00 +21°C° 0 mm 3 mps 661 mmHg 36%
    15:00 +19°C° 0 mm 2 mps 661 mmHg 42%
    16:00 +18°C° 0 mm 2 mps 660 mmHg 47%
    17:00 +16°C° 0 mm 1 mps 660 mmHg 53%
    18:00 +15°C° 0 mm 1 mps 659 mmHg 56%
    19:00 +13°C° 0 mm 1 mps 659 mmHg 60%
    20:00 +12°C° 0 mm 1 mps 659 mmHg 63%
    21:00 +11°C° 0 mm 1 mps 659 mmHg 63%
    22:00 +11°C° 0 mm 1 mps 659 mmHg 63%
    23:00 +11°C° 0 mm 1 mps 659 mmHg 63%
    Show more